Location: Chervonnoye
(48.6000°N, 34.4000°E)
Time: 07:28:34
(UTC+00:00)

Nadezhda 1 Rocket - Pass Details

Date: 19 April 2021
Orbit: 940 x 1006 km, 83.0° (Epoch: 13 May)

Event Time Altitude Azimuth Distance (km) Brightness Sun altitude
Exits shadow 00:11:26 18° 277° (W) 2,260 5.6 -21.7°
Maximum altitude 00:13:14 20° 298° (WNW) 2,148 5.7 -21.5°
Drops below altitude 10° 00:17:47 10° 344° (NNW) 2,784 6.8 -21.0°
Sets 00:21:07 0° 1° (N) 3,730 7.8 -20.6°
